EW4324 Weather Reports


time (UTC)temp
C
wind
direction
speed
KPH
gust
KPH
rain 1hr
cm
rain 24hr
cm
rain mn
cm
humidity
%
barometer
mb
20260504213603 21 203 6.4 16.1 0.00 0.03 0.03 33 1007.3
20260504212703 21 233 11.3 33.8 0.00 0.03 0.03 34 1007.2
20260504211803 21 222 8.0 20.9 0.00 0.03 0.03 33 1007.4
20260504210903 20 230 9.7 25.7 0.00 0.03 0.03 34 1007.3
20260504210003 21 214 8.0 19.3 0.00 0.03 0.03 33 1007.3
20260504205403 20 220 9.7 24.1 0.00 0.03 0.03 35 1007.4
20260504204503 20 225 9.7 24.1 0.00 0.03 0.03 35 1007.4
20260504203603 20 229 9.7 37.0 0.00 0.03 0.03 35 1007.3
20260504202703 20 224 9.7 35.4 0.00 0.03 0.03 33 1007.3
20260504201803 20 232 8.0 25.7 0.00 0.03 0.03 34 1007.4
20260504200903 20 228 11.3 25.7 0.00 0.03 0.03 33 1007.5
20260504200003 20 214 8.0 27.4 0.00 0.03 0.03 33 1007.3
20260504195403 21 208 8.0 27.4 0.00 0.03 0.03 35 1007.3
20260504194503 20 209 11.3 27.4 0.00 0.03 0.03 33 1007.5
20260504193603 21 230 11.3 24.1 0.00 0.03 0.03 34 1007.4
20260504192914 20 231 9.7 32.2 0.00 0.03 0.03 36 1007.3
20260504191803 20 209 11.3 33.8 0.00 0.03 0.03 33 1007.5
20260504190903 20 217 12.9 33.8 0.00 0.03 0.03 33 1007.4
20260504190003 20 223 11.3 33.8 0.00 0.03 0.03 34 1007.6
20260504185403 20 227 14.5 33.8 0.00 0.03 0.03 32 1007.7
20260504184503 20 218 11.3 27.4 0.00 0.03 0.03 31 1007.8
20260504183814 20 208 11.3 25.7 0.00 0.03 0.03 34 1007.8
20260504182703 20 220 12.9 33.8 0.00 0.03 0.03 32 1008.0
20260504181803 20 236 9.7 30.6 0.00 0.03 0.03 31 1008.0
20260504180903 19 220 14.5 35.4 0.00 0.03 0.03 33 1008.1
20260504180003 20 223 12.9 30.6 0.00 0.03 0.03 32 1008.1
20260504175403 19 234 11.3 30.6 0.00 0.03 0.03 32 1008.0
20260504174503 20 217 8.0 27.4 0.00 0.03 0.03 36 1008.0
20260504173603 19 206 9.7 32.2 0.00 0.03 0.03 33 1008.1
20260504172703 18 229 14.5 30.6 0.00 0.03 0.03 34 1008.3
20260504171803 18 207 16.1 37.0 0.00 0.03 0.03 34 1008.3
20260504170903 18 214 9.7 24.1 0.00 0.03 0.03 34 1008.3
20260504150903 16 225 12.9 37.0 0.00 0.03 0.03 41 1009.6
20260504140903 15 237 9.7 27.4 0.00 0.03 0.03 42 1009.9
20260504140214 15 236 11.3 27.4 0.00 0.03 0.03 43 1009.8
20260504081803 6 244 0.0 1.6 0.00 0.03 0.03 60 1010.8
20260504080903 6 244 0.0 1.6 0.00 0.03 0.03 60 1010.7
20260504050003 5 0 0.0 0.0 0.00 0.00 0.00 68 1010.6
20260504045403 5 0 0.0 0.0 0.00 0.00 0.00 67 1010.6
20260504044503 4 0 0.0 0.0 0.00 0.00 0.00 65 1010.7
20260504043603 4 0 0.0 0.0 0.00 0.00 0.00 65 1010.8
20260504042703 3 0 0.0 0.0 0.00 0.00 0.00 68 1010.9
20260504041803 3 0 0.0 0.0 0.00 0.00 0.00 69 1010.8
20260504040903 3 0 0.0 0.0 0.00 0.00 0.00 70 1010.7
20260504040003 3 0 0.0 0.0 0.00 0.00 0.00 68 1010.4
20260504035403 2 0 0.0 0.0 0.00 0.00 0.00 70 1010.5
20260504034503 2 0 0.0 0.0 0.00 0.00 0.00 68 1010.4
20260504033603 2 0 0.0 0.0 0.00 0.00 0.00 69 1010.2
20260504032703 2 0 0.0 0.0 0.00 0.00 0.00 70 1010.2
20260504031803 2 0 0.0 0.0 0.00 0.00 0.00 71 1010.2
20260504030903 2 0 0.0 0.0 0.00 0.00 0.00 72 1010.2
20260504030213 2 0 0.0 0.0 0.00 0.00 0.00 70 1010.2
20260504025403 2 0 0.0 0.0 0.00 0.00 0.00 70 1010.1
20260504024503 3 0 0.0 0.0 0.00 0.00 0.00 68 1010.1
20260504023603 3 0 0.0 0.0 0.00 0.00 0.00 68 1010.0
20260504022703 3 0 0.0 0.0 0.00 0.00 0.00 69 1010.0
20260504021807 3 0 0.0 0.0 0.00 0.00 0.00 67 1010.0
20260504021114 3 0 0.0 0.0 0.00 0.00 0.00 66 1009.9
20260504020003 4 0 0.0 0.0 0.00 0.00 0.00 65 1009.9
20260504015403 4 0 0.0 0.0 0.00 0.00 0.00 65 1009.9
20260504014503 4 0 0.0 0.0 0.00 0.00 0.00 63 1009.9
20260504013603 5 0 0.0 0.0 0.00 0.00 0.00 61 1009.8
20260504012703 5 0 0.0 0.0 0.00 0.00 0.00 60 1009.7
20260504011803 5 0 0.0 0.0 0.00 0.00 0.00 60 1009.7
20260504010903 5 0 0.0 0.0 0.00 0.00 0.00 60 1009.5
20260504010003 6 0 0.0 0.0 0.00 0.00 0.00 57 1009.4
20260504005403 6 0 0.0 0.0 0.00 0.00 0.00 55 1009.3
20260504004714 6 0 0.0 0.0 0.00 0.00 0.00 55 1009.2
20260504003603 7 0 0.0 0.0 0.00 0.00 0.00 55 1009.2
20260504002703 7 0 0.0 0.0 0.00 0.00 0.00 52 1009.1
20260504001803 7 0 0.0 0.0 0.00 0.00 0.00 50 1009.0
20260504000903 7 244 0.0 3.2 0.00 0.00 0.00 46 1009.0
20260504000212 8 244 1.6 6.4 0.00 0.00 0.00 46 1008.9
20260503235406 8 242 1.6 6.4 0.00 0.00 0.00 45 1008.8
20260503234713 8 238 3.2 12.9 0.00 0.00 0.00 44 1008.7
20260503233607 8 232 1.6 12.9 0.00 0.00 0.00 44 1008.6
20260503232703 9 235 1.6 8.0 0.00 0.00 0.00 42 1008.6
20260503232013 9 233 3.2 16.1 0.00 0.00 0.00 42 1008.5
20260503230903 10 265 4.8 20.9 0.00 0.00 0.00 40 1008.4
20260503230003 10 269 3.2 12.9 0.00 0.00 0.00 42 1008.4
20260503225614 10 249 3.2 14.5 0.00 0.00 0.00 42 1008.3
20260503224503 10 253 3.2 9.7 0.00 0.00 0.00 41 1008.2
20260503223603 10 288 3.2 16.1 0.00 0.00 0.00 40 1008.1
20260503222703 10 260 6.4 22.5 0.00 0.00 0.00 41 1008.1
20260503221803 11 264 6.4 16.1 0.00 0.00 0.00 39 1008.1
20260503221112 11 260 4.8 20.9 0.00 0.00 0.00 40 1007.9
20260503220003 10 249 8.0 25.7 0.00 0.00 0.00 40 1008.0
20260503215613 10 261 8.0 25.7 0.00 0.00 0.00 40 1007.9
20260503214713 10 257 8.0 27.4 0.00 0.00 0.00 39 1007.8